Probability
6 6 7 7 6 6 6 6 6 5 2 1 0 0 1 1 1 0 0 0 0 0 1 2 4 5 4 2 2 3 3 3 3 3 1 0 0 0 0 0 0 0 0
4 5 5 6 7 7 7 6 4 4 3 1 0 0 0 0 0 0 0 0 0 0 0 1 4 5 4 3 2 2 3 3 3 3 2 1 0 0 0 0 0 0 0
2 3 5 6 8 9 8 5 3 2 2 2 1 1 0 0 0 0 0 0 0 0 0 0 2 4 5 5 4 3 3 3 3 3 2 1 0 0 0 0 0 0 0
3 3 5 8 9 10 8 5 3 1 1 2 2 2 1 0 0 0 0 0 0 0 0 0 1 5 8 8 7 5 5 5 4 3 2 1 0 0 0 0 0 0 0
4 5 7 10 11 11 9 5 4 3 2 2 3 2 1 0 0 0 0 0 0 0 0 0 2 4 7 8 8 8 8 6 5 4 2 1 0 0 0 0 0 0 0
5 7 9 10 12 12 11 8 7 6 4 3 2 1 0 0 0 0 0 0 0 0 0 1 3 4 5 6 8 9 9 7 5 4 3 1 0 0 0 0 0 0 0
6 7 8 10 12 13 13 11 10 7 6 4 2 0 0 0 0 0 0 0 0 0 0 2 3 5 6 6 7 8 9 8 6 5 3 2 1 1 1 0 0 0 0
5 5 6 8 10 12 13 13 10 7 5 4 2 0 0 0 0 0 0 0 0 0 0 1 1 3 6 7 7 8 9 9 8 7 4 2 2 2 1 0 0 0 0
5 5 4 5 7 10 12 11 9 5 4 4 3 1 0 0 0 0 0 0 0 0 0 0 0 1 5 7 7 7 8 8 9 8 5 3 3 2 1 0 0 0 0
7 6 5 5 6 8 10 9 6 4 2 3 3 2 1 0 0 0 0 0 0 0 0 0 0 1 3 5 6 6 6 6 7 7 6 5 2 1 1 0 0 1 1
7 7 6 7 7 8 8 6 4 3 2 2 2 2 1 1 1 1 1 0 0 0 1 1 1 1 2 3 3 3 4 4 4 5 6 5 2 1 0 0 1 2 2
6 6 7 7 7 7 7 6 5 3 2 2 2 2 2 2 2 1 1 0 0 0 1 2 1 1 2 2 1 2 3 3 3 3 5 5 2 1 0 0 1 3 4
6 6 6 7 7 6 6 6 5 3 3 3 3 3 3 3 2 1 1 0 0 0 1 2 1 1 1 1 1 2 2 3 3 3 3 3 2 1 0 0 1 3 3
6 6 6 6 6 5 4 4 4 3 3 3 4 4 4 4 3 1 0 0 0 0 1 1 1 2 1 1 1 1 1 2 2 2 2 2 1 1 0 0 0 1 1
9 8 6 4 4 4 3 3 3 3 3 3 3 3 3 4 4 2 1 1 1 0 0 0 1 2 1 1 1 1 1 2 1 0 1 1 0 0 0 0 0 0 0
14 10 6 4 4 3 3 3 3 3 2 1 1 1 2 4 4 4 3 3 2 1 0 0 1 1 1 1 1 2 2 2 1 0 0 0 0 0 0 0 0 0 0
14 11 8 6 5 4 3 2 2 1 1 0 0 0 1 2 2 3 4 4 3 2 0 1 1 1 1 1 2 2 3 2 2 1 0 0 0 0 0 0 0 0 0
13 12 9 7 5 3 1 1 1 0 0 0 0 0 1 1 1 2 4 5 5 4 2 2 2 2 2 2 3 3 3 3 3 1 0 0 0 0 0 0 0 0 0
13 13 11 7 4 3 1 0 0 0 0 0 0 0 0 0 0 1 2 4 4 5 4 3 3 4 4 4 5 4 4 5 3 1 0 0 0 0 0 0 0 0 0
13 13 11 8 4 3 1 1 0 0 0 0 0 0 0 0 0 0 1 2 3 5 5 4 3 3 3 4 6 7 6 5 3 1 1 0 0 0 0 0 0 0 0
12 11 10 7 4 3 2 1 0 0 0 0 0 0 0 0 0 0 0 1 2 4 4 3 2 1 1 2 4 6 6 4 3 3 3 2 1 0 0 0 0 0 0
10 10 8 6 3 2 1 1 0 0 0 0 0 0 0 0 0 0 0 0 1 2 3 3 2 1 1 3 4 4 4 4 4 4 5 3 2 1 0 0 0 0 0
10 10 8 6 3 1 0 0 0 0 0 0 0 0 0 0 0 1 1 1 1 1 1 3 3 2 3 7 7 6 5 5 4 4 5 4 3 2 1 0 0 0 0
12 11 9 7 4 1 0 0 0 0 0 0 0 1 1 1 1 1 2 2 1 1 0 1 3 3 4 8 9 7 6 5 5 5 5 4 3 3 3 2 1 0 0
13 12 10 8 5 2 1 0 0 0 1 1 2 2 2 1 1 1 1 1 1 2 2 1 2 2 3 4 5 5 5 5 5 5 5 5 4 4 4 4 2 0 0
14 13 10 8 6 3 2 1 0 1 2 3 3 3 2 1 0 0 0 0 1 4 4 3 1 1 1 1 2 3 4 4 3 4 6 5 5 4 4 4 3 1 0
Wind_Speed
3 3 2 1 2 1 3 2 1 2 2 3 2 2 1 1 1 2 4 7 5 3 3 3 3 4 4 4 4 4 5 5 5 5 4 4 4 4 4 5 4 4 3
2 3 3 2 2 1 1 1 2 2 2 2 2 2 1 1 1 1 2 6 6 4 3 3 3 4 4 4 4 4 4 5 5 4 4 3 3 4 4 4 4 4 4
3 3 3 3 2 2 2 2 2 2 2 3 3 3 2 1 2 1 1 1 5 7 5 3 3 4 4 4 4 3 4 5 5 5 4 3 3 4 4 5 5 4 4
4 3 3 3 3 2 2 2 2 2 2 2 2 2 2 2 2 2 2 2 1 3 6 6 4 3 3 3 3 4 4 4 4 5 4 3 3 4 4 5 5 5 5
5 4 3 2 3 3 3 3 3 2 2 2 2 2 2 2 2 2 2 1 1 2 2 7 6 4 4 4 3 3 3 3 4 4 4 3 4 4 4 4 5 5 5
5 4 3 4 4 3 3 2 3 2 2 2 2 2 1 1 1 1 2 2 2 3 3 3 5 5 6 4 4 3 3 4 4 4 4 4 4 4 4 4 4 5 5
5 4 3 4 4 3 3 4 4 4 3 3 3 2 2 2 1 1 2 2 2 2 2 2 2 2 4 7 5 4 4 4 4 4 4 4 4 4 4 4 4 5 5
4 5 4 4 4 3 4 5 4 3 3 3 3 3 3 4 3 2 2 2 2 2 3 3 2 2 2 2 5 6 4 4 4 4 4 4 4 4 4 4 4 4 5
5 4 4 4 4 5 4 5 5 5 3 3 3 3 2 1 2 3 3 2 2 2 2 3 3 2 2 2 3 6 5 3 3 4 4 4 4 4 4 4 4 4 4
4 4 4 4 4 4 4 5 5 4 4 4 3 2 2 2 2 2 4 4 3 3 3 3 3 3 3 3 2 3 4 3 4 4 5 5 5 5 5 5 5 4 4
5 5 5 4 4 3 3 3 3 4 4 4 3 3 2 2 4 3 2 3 4 4 3 4 3 3 3 3 3 4 5 4 4 4 5 5 5 5 6 6 6 6 5
4 5 5 4 4 3 4 4 4 5 4 3 3 3 3 3 3 3 3 3 3 3 3 3 3 3 4 4 4 5 6 5 5 4 4 5 5 6 7 7 7 7 6
5 5 5 5 4 4 4 4 4 4 4 4 4 4 3 3 3 3 3 2 3 3 3 4 4 3 3 3 3 7 7 7 6 5 5 5 5 5 6 6 7 7 7
4 5 6 5 5 5 4 4 4 5 4 4 5 4 4 3 3 3 3 3 3 3 4 3 3 3 3 3 2 5 6 8 7 6 6 6 6 5 5 5 6 6 6
5 6 6 6 5 5 5 5 4 4 4 5 5 5 5 3 4 3 3 4 4 4 3 3 3 3 3 2 2 4 4 7 7 7 6 6 6 6 5 5 6 6 6
5 6 6 6 6 6 6 5 5 5 4 4 3 4 5 4 3 4 4 4 4 4 4 1 2 2 1 2 3 4 4 6 8 8 8 7 7 6 6 6 6 6 6
6 6 6 6 7 7 6 5 5 4 5 5 5 5 6 5 4 4 4 4 4 4 4 3 2 2 3 4 2 3 4 4 5 9 9 8 7 7 7 7 7 7 7
6 6 6 6 6 6 6 6 6 5 5 5 5 5 6 5 6 5 4 5 4 4 5 5 3 3 4 4 3 4 4 3 3 7 9 8 8 8 7 7 8 8 8
6 6 6 6 6 6 6 6 6 5 5 5 5 6 6 6 6 5 6 5 5 5 5 5 5 2 3 3 3 4 4 3 4 5 9 10 9 9 8 8 8 8 8
6 6 6 6 6 6 6 6 6 6 5 5 5 6 6 6 6 6 6 6 5 5 5 5 4 3 3 3 4 4 3 3 3 3 3 4 7 10 10 10 9 9 9
7 6 6 6 6 6 6 6 6 6 5 5 5 6 6 5 4 5 5 5 5 5 5 5 4 4 3 3 3 3 3 3 3 3 3 3 4 5 7 9 10 10 10
6 6 7 7 7 6 5 5 6 5 5 5 5 5 6 7 6 7 6 5 5 6 6 5 5 4 4 4 3 3 3 3 3 2 3 4 4 4 4 4 6 9 10
7 7 7 7 7 6 7 7 7 6 6 5 5 5 5 4 6 7 8 9 9 8 7 7 7 5 5 4 4 5 4 4 5 3 4 5 4 4 4 3 7 9 9
7 7 7 7 7 6 8 8 8 8 6 6 6 5 5 5 5 5 6 7 8 8 9 9 7 6 6 4 5 5 5 5 6 5 5 5 4 4 4 3 7 9 9
7 7 7 7 7 6 9 9 8 7 6 7 6 6 6 6 4 4 7 7 6 6 7 7 6 6 5 5 5 5 5 5 5 4 4 4 4 4 4 4 4 9 9
7 7 6 7 7 6 8 10 9 7 6 6 6 6 6 6 5 6 7 7 7 6 6 6 6 8 8 9 10 9 7 6 5 4 3 4 4 4 4 4 3 3 5
Wind_Direction
183 160 162 179 201 164 172 182 165 143 171 172 170 162 156 136 140 139 127 129 141 157 174 180 169 166 163 163 158 153 153 153 151 150 152 152 157 165 162 151 152 148 140
173 176 174 174 184 193 149 157 158 161 174 146 144 139 155 151 124 152 148 140 147 154 172 179 174 162 161 162 166 164 160 161 160 153 143 143 152 155 158 158 156 149 141
177 189 176 184 172 168 164 185 176 176 173 165 155 148 155 156 143 144 186 163 150 151 156 162 168 165 169 173 174 171 166 163 162 151 144 148 153 159 163 167 166 157 151
188 202 188 177 168 184 180 170 199 179 173 179 161 155 152 155 165 166 180 178 155 141 143 142 140 148 157 165 165 159 167 171 166 154 156 164 164 161 166 173 173 168 163
191 205 195 162 184 182 185 198 172 180 173 177 164 163 179 173 168 172 170 183 162 166 156 141 150 152 157 159 157 155 158 164 166 167 175 179 179 168 169 172 172 169 171
195 206 193 178 196 182 182 183 174 180 185 189 187 155 178 164 191 171 194 184 187 188 187 169 168 163 165 172 172 171 175 170 172 175 178 183 186 180 176 180 183 183 183
195 205 198 177 202 190 191 188 188 175 187 184 190 182 177 175 184 207 209 207 182 190 186 194 208 198 165 171 174 174 182 184 187 185 185 188 189 185 185 186 191 191 189
199 200 197 195 190 185 188 186 190 198 191 200 222 217 204 182 181 191 194 203 212 202 194 197 190 213 241 184 147 170 180 186 182 190 199 198 193 195 198 199 197 194 193
198 202 193 199 191 202 187 191 197 201 205 205 232 255 250 221 167 164 191 203 212 219 213 193 197 200 212 216 177 161 167 174 188 203 204 201 201 201 203 204 201 201 196
192 186 187 188 197 204 186 201 199 208 215 211 202 255 299 329 261 177 182 186 200 214 226 221 199 191 205 203 170 144 162 185 206 215 212 210 216 214 208 207 211 205 199
189 185 180 185 190 202 195 210 197 219 218 229 225 214 210 218 247 250 210 196 204 208 207 219 228 220 216 214 208 165 168 196 212 219 219 218 222 221 219 215 213 210 210
184 182 183 185 192 197 191 202 207 212 224 228 240 236 230 227 228 236 228 216 216 206 203 214 223 224 224 223 211 151 179 199 208 214 219 222 224 230 228 222 218 215 215
182 181 186 187 196 197 199 202 209 218 214 216 229 233 239 243 250 250 244 232 230 206 201 214 212 225 229 230 201 164 190 194 202 206 213 219 225 232 225 223 222 222 221
187 177 187 189 194 195 200 204 212 209 208 217 228 233 238 233 236 238 242 240 238 227 212 212 209 222 238 239 141 194 205 186 199 203 208 212 214 223 222 220 222 224 225
187 182 189 190 191 194 198 207 215 213 207 217 219 218 233 228 229 234 239 244 257 259 240 198 220 206 234 237 153 231 238 178 190 200 205 208 210 216 218 219 221 222 223
191 186 191 190 194 198 198 208 211 206 209 217 230 235 238 233 225 225 232 237 248 264 273 251 223 226 255 269 181 249 250 173 196 200 205 208 210 214 217 220 221 221 222
190 191 195 194 197 200 197 204 215 199 210 216 226 226 233 242 235 226 224 227 233 243 252 257 249 211 224 258 243 258 251 236 200 185 193 203 211 216 219 221 221 221 220
195 194 198 199 201 199 198 204 210 206 213 220 225 228 231 229 231 240 234 233 232 242 249 252 256 236 229 240 244 254 253 244 242 169 185 199 211 218 223 225 224 224 223
197 197 198 200 204 201 201 206 212 216 220 226 228 228 230 230 232 232 235 234 232 230 239 248 250 253 250 237 239 241 241 243 250 178 186 197 207 215 221 225 225 225 225
198 200 203 203 205 205 205 208 214 219 224 228 229 231 233 231 231 231 230 232 237 241 233 242 246 241 240 228 234 239 233 223 246 238 209 209 201 208 216 220 222 222 223
203 203 206 206 207 208 206 210 219 217 218 226 230 233 235 235 244 246 250 235 230 237 238 237 241 239 236 233 237 245 250 247 237 239 243 230 213 225 216 215 216 217 220
206 206 210 211 212 210 169 193 229 224 222 226 229 233 229 217 215 220 240 252 254 247 250 248 245 244 242 244 242 248 255 259 260 232 251 250 238 245 242 236 200 205 214
206 210 213 215 216 202 174 191 215 235 231 230 230 236 243 222 219 220 211 218 228 236 243 257 257 253 249 243 244 247 247 260 269 260 250 257 248 252 253 231 193 203 210
209 213 217 218 220 204 178 191 206 226 232 229 229 233 241 238 230 234 229 223 227 218 219 231 250 254 258 259 247 252 259 254 256 244 230 256 256 258 260 244 191 203 210
211 214 214 216 219 205 182 189 204 223 222 224 227 227 236 238 211 222 234 231 232 232 223 231 248 258 266 256 250 249 245 247 257 254 229 252 264 267 261 253 207 195 203
212 216 214 217 219 214 183 187 204 228 223 223 220 220 221 235 203 207 229 231 231 233 231 216 223 227 233 230 219 230 241 248 259 263 228 238 258 267 264 246 239 207 212